Wind_Speed
15 14 13 14 14 15 14 12 11 10 10 11 13 14 14 14 15 16 17 16 16 16 16 15 14 13 14 14 14 15 16 17 18 19 20 21 22 23 24 24 25 25 26 26
15 14 14 15 16 15 13 12 10 10 10 12 13 15 16 16 16 16 16 16 15 16 15 14 15 15 14 15 16 16 17 18 20 21 21 22 23 24 25 26 26 26 27 27
15 15 15 15 14 13 12 12 11 10 11 14 15 16 16 17 17 17 18 17 17 15 15 15 15 15 15 16 16 18 19 20 21 22 23 24 25 25 26 26 26 27 27 27
15 15 15 14 14 14 14 14 13 13 14 16 16 17 17 17 17 18 19 18 18 15 15 15 14 15 16 17 18 19 20 21 22 23 24 25 26 26 26 27 26 26 26 27
15 14 14 14 14 14 14 16 15 15 16 17 18 19 18 17 18 19 19 18 16 15 14 15 16 16 16 18 19 20 21 22 23 24 25 26 26 27 27 27 27 26 26 26
15 14 13 12 13 15 16 17 16 16 17 19 18 20 20 19 19 19 19 18 15 16 16 17 17 16 17 18 19 21 22 23 24 25 25 26 26 27 27 27 27 26 26 26
16 15 14 13 14 16 17 16 16 17 19 19 18 20 21 19 20 21 20 19 18 18 17 17 18 18 19 20 21 22 23 24 25 25 25 26 26 26 26 26 26 26 26 26
15 14 15 14 14 16 17 17 17 16 17 17 17 19 19 20 19 19 20 21 21 20 19 19 19 19 20 21 22 23 24 24 24 25 25 25 26 26 26 26 26 26 26 26
14 14 15 14 14 17 18 19 18 18 17 18 17 18 19 19 18 19 19 20 21 20 21 20 20 20 21 22 22 23 23 24 25 25 25 26 25 25 25 25 26 26 26 26
13 13 14 14 15 16 17 17 17 17 16 16 17 16 17 17 19 19 19 21 21 20 20 20 21 21 21 22 22 24 24 25 25 25 25 25 25 25 25 25 26 25 26 27
13 13 13 14 14 14 15 17 17 17 17 17 18 17 17 18 19 20 21 22 22 20 19 19 19 20 21 22 23 24 25 25 25 25 25 25 25 25 25 24 25 25 26 26
14 13 12 13 13 14 15 16 16 17 17 18 18 19 19 21 20 21 21 18 18 18 19 19 19 20 21 22 23 24 24 24 24 24 24 24 24 24 24 24 24 24 24 24
13 13 12 13 14 14 15 15 16 18 18 19 19 19 19 19 21 21 21 19 18 19 20 19 19 21 22 22 22 22 23 23 24 24 23 23 23 24 23 24 24 24 23 23
13 13 13 13 14 15 16 16 17 18 18 18 19 19 19 20 21 21 19 18 19 20 20 20 20 21 21 21 21 21 22 23 23 23 23 23 22 23 23 23 23 22 21 21
12 11 12 13 14 15 15 16 17 17 16 16 18 18 19 20 20 20 19 19 20 20 20 20 20 20 20 20 20 21 21 22 22 22 21 21 21 21 20 20 19 18 18 18
10 10 10 11 12 14 15 15 15 15 16 16 17 18 19 19 18 19 20 21 22 22 21 20 19 19 19 19 20 20 20 20 20 19 18 18 17 17 16 16 16 16 16 16
8 9 10 10 11 12 14 13 14 15 15 15 16 18 18 17 18 19 21 21 21 21 20 19 19 19 19 19 19 18 18 17 16 15 15 14 13 13 12 12 13 13 13 13
8 9 9 10 10 12 11 12 13 14 14 14 16 16 16 17 19 20 20 21 21 20 20 19 19 18 18 17 16 15 15 14 13 12 12 11 11 11 10 9 9 9 10 10
6 7 8 8 8 8 9 10 11 12 13 13 14 15 15 16 17 18 19 20 20 19 18 17 17 16 15 14 13 12 11 10 10 9 9 8 8 8 7 7 7 7 7 7
2 3 4 5 6 7 8 8 9 10 11 12 13 14 15 16 17 18 18 18 17 17 16 15 14 13 12 11 10 10 9 8 7 7 7 6 6 6 5 5 5 4 3 3
1 1 2 4 5 5 5 7 8 9 10 11 12 13 14 15 15 16 16 16 16 15 14 12 11 10 9 9 8 7 6 5 5 5 5 4 4 4 3 3 3 3 2 1
3 3 3 4 5 6 6 7 9 9 9 9 10 12 14 14 14 15 15 15 14 13 11 10 9 8 8 7 6 4 3 3 3 3 3 3 3 3 3 3 3 4 5 5
3 3 4 4 4 4 4 6 8 8 8 9 10 12 12 13 13 14 14 13 11 10 9 9 8 7 6 5 4 3 2 2 3 3 4 4 5 5 6 6 6 7 7 7
3 3 5 4 3 4 5 6 7 8 8 9 10 10 11 12 12 12 12 11 10 9 8 8 7 6 6 5 5 4 4 4 5 5 5 6 6 6 6 7 7 8 8 8
4 5 6 5 5 5 6 7 8 8 8 8 9 10 11 11 11 11 11 10 9 8 7 7 7 7 6 7 6 6 6 5 5 6 6 7 7 7 7 8 8 9 9 10
5 5 5 6 7 7 7 8 8 7 7 8 8 9 10 10 10 10 10 9 8 7 7 7 7 7 7 7 7 7 8 8 8 8 8 8 8 9 9 9 10 11 11 11
Wind_Direction
205 202 199 198 199 199 201 206 211 212 223 238 258 265 262 264 274 279 274 274 278 281 287 285 280 278 272 269 270 271 270 274 278 278 278 279 278 276 274 272 273 274 273 272
196 189 188 195 197 199 202 204 210 219 230 243 259 266 269 271 276 277 276 276 281 286 285 284 284 282 275 272 272 274 277 279 280 280 280 279 279 279 278 277 276 276 276 274
182 184 191 195 197 201 204 205 211 224 232 238 248 259 267 271 275 276 279 279 282 286 283 278 278 278 275 274 274 277 280 282 283 282 281 281 281 280 280 278 277 276 275 275
184 191 197 200 203 207 209 211 216 221 229 236 244 259 267 272 274 276 278 277 280 285 287 281 276 274 274 275 278 281 283 284 283 282 282 282 282 282 280 279 277 276 275 274
187 192 200 201 203 207 210 213 221 225 232 244 253 262 268 274 276 279 282 279 279 284 285 283 281 278 277 279 281 283 284 285 284 283 282 283 283 283 282 279 278 276 276 275
190 195 200 202 203 204 208 213 217 224 233 241 251 261 269 277 278 278 283 286 284 282 282 282 279 279 281 284 286 287 287 287 287 286 285 284 284 284 283 281 279 277 276 275
194 198 199 201 203 206 210 215 219 225 234 242 252 261 267 273 282 279 281 283 286 287 284 282 283 284 284 286 287 288 289 288 289 288 286 286 285 285 283 281 280 278 276 275
199 199 202 204 209 209 213 222 229 238 243 248 257 266 273 281 285 285 282 286 290 286 285 289 287 286 285 286 287 288 289 289 290 289 288 287 286 285 282 280 279 278 277 275
206 202 202 209 211 213 216 224 232 243 249 255 262 273 281 285 286 288 284 289 294 290 288 287 288 288 289 290 290 290 291 291 291 290 289 287 285 284 282 280 279 277 275 274
213 212 210 216 218 216 222 227 233 242 254 261 266 279 291 292 289 292 289 294 295 291 286 285 289 289 292 292 291 292 293 291 290 290 290 288 285 284 283 281 279 277 275 274
221 221 218 222 222 220 223 229 239 248 255 264 273 284 294 300 300 297 297 296 297 293 289 287 288 289 291 292 292 292 291 290 290 290 290 287 283 282 282 281 279 278 276 274
225 226 224 221 219 221 227 233 240 250 257 268 279 286 293 298 301 303 302 302 299 297 295 293 291 292 293 294 293 292 292 291 291 290 289 287 284 283 283 281 279 277 276 275
223 227 226 222 223 226 231 237 245 254 262 270 279 288 293 298 301 305 303 302 301 301 302 297 295 294 294 295 294 293 292 292 292 291 290 289 286 284 283 281 279 277 276 275
224 225 226 225 225 229 233 239 248 257 266 273 280 287 293 298 302 306 305 301 302 303 302 300 298 296 295 295 294 293 294 294 294 293 292 291 287 285 283 281 280 278 276 274
222 225 224 224 228 231 238 246 253 262 271 279 286 289 296 298 302 307 309 305 307 307 303 300 298 297 295 295 295 296 296 296 295 294 292 290 289 288 287 284 282 280 276 274
222 226 225 226 230 237 245 253 261 269 276 283 287 289 292 298 304 310 311 309 309 311 307 303 300 297 296 295 296 296 297 297 296 295 294 293 292 290 289 287 283 279 275 273
227 225 226 229 238 243 249 255 263 270 274 282 287 293 295 304 310 313 312 313 313 311 308 306 302 300 297 297 298 298 299 299 298 298 299 297 294 292 290 289 284 280 276 276
227 228 229 234 243 248 253 255 265 270 278 287 294 299 302 309 313 314 314 314 313 310 308 307 307 305 301 300 301 300 300 301 300 301 301 298 294 296 295 292 290 283 283 284
220 224 231 236 244 253 259 267 279 289 291 294 302 311 313 314 316 316 317 316 315 313 311 310 310 309 307 306 305 306 306 305 306 307 307 303 301 301 304 300 295 290 289 288
210 227 238 248 259 259 268 283 292 296 295 305 313 319 321 323 322 322 322 320 320 319 318 316 314 313 314 314 312 310 308 308 309 313 315 318 319 316 316 315 319 315 306 293
237 297 285 282 280 281 291 300 308 309 311 314 318 322 324 326 326 326 326 326 324 325 325 324 324 324 323 322 319 313 313 320 328 334 337 337 340 349 354 353 1 9 19 32
344 340 330 301 291 299 307 304 308 306 312 323 327 328 328 328 328 330 330 331 332 333 335 338 339 338 335 333 330 330 333 343 354 5 13 17 21 31 36 44 56 63 64 68
2 0 353 344 332 325 321 314 315 316 323 336 338 336 334 334 334 335 338 340 342 344 347 351 354 354 356 0 8 20 26 36 49 52 56 53 57 65 69 74 79 77 73 74
9 2 352 349 349 354 347 335 332 335 338 342 342 343 343 342 343 344 346 349 351 351 353 357 4 14 25 37 49 59 69 74 75 74 70 69 76 78 76 78 80 79 79 78
16 9 4 1 359 352 349 343 339 336 340 345 347 350 352 353 354 354 357 359 2 4 11 20 29 36 45 58 66 77 81 80 79 79 81 83 85 86 85 83 82 85 86 87
13 10 7 9 5 0 356 353 351 350 349 352 353 353 358 2 3 6 11 13 16 26 34 40 44 49 57 66 75 81 83 86 90 91 89 87 87 87 87 86 89 90 90 91
Height
5822 5825 5828 5830 5832 5834 5836 5837 5839 5841 5842 5843 5843 5844 5845 5845 5845 5845 5844 5844 5844 5844 5843 5842 5842 5842 5842 5843 5843 5843 5843 5842 5842 5841 5840 5840 5839 5839 5838 5837 5837 5836 5835 5835
5820 5823 5825 5827 5829 5831 5833 5835 5836 5838 5838 5840 5841 5841 5841 5842 5842 5841 5841 5841 5842 5841 5840 5839 5839 5839 5839 5839 5839 5839 5838 5837 5837 5836 5835 5834 5834 5833 5832 5831 5830 5829 5829 5828
5817 5821 5822 5824 5827 5829 5831 5832 5833 5835 5835 5837 5838 5839 5839 5839 5838 5838 5838 5838 5838 5838 5837 5836 5835 5836 5836 5835 5835 5835 5834 5833 5832 5830 5830 5829 5828 5827 5826 5825 5824 5823 5822 5821
5814 5817 5820 5822 5824 5827 5828 5830 5831 5832 5833 5834 5836 5836 5836 5835 5835 5835 5835 5835 5834 5833 5832 5831 5830 5831 5831 5831 5830 5829 5828 5827 5826 5825 5824 5822 5821 5820 5819 5818 5817 5816 5815 5814
5812 5815 5818 5820 5822 5824 5826 5827 5828 5829 5831 5832 5833 5833 5833 5832 5832 5832 5831 5829 5829 5829 5828 5827 5827 5825 5825 5825 5824 5823 5822 5821 5819 5818 5817 5815 5814 5813 5812 5811 5810 5809 5808 5807
5811 5813 5815 5818 5820 5821 5823 5824 5825 5827 5828 5829 5830 5830 5830 5829 5829 5828 5827 5825 5825 5824 5823 5823 5822 5820 5819 5819 5818 5817 5815 5814 5813 5811 5810 5808 5807 5806 5804 5803 5802 5802 5801 5800
5808 5811 5813 5815 5817 5819 5820 5822 5823 5824 5825 5826 5827 5826 5827 5826 5825 5824 5822 5821 5820 5820 5819 5818 5817 5815 5814 5813 5812 5810 5808 5807 5806 5804 5802 5801 5799 5798 5797 5796 5795 5794 5793 5793
5806 5809 5811 5812 5814 5816 5817 5819 5821 5822 5822 5823 5823 5822 5823 5822 5820 5819 5818 5817 5816 5815 5814 5812 5811 5809 5808 5807 5805 5804 5802 5800 5798 5796 5794 5793 5792 5790 5789 5789 5788 5787 5786 5785
5804 5807 5809 5811 5812 5814 5815 5816 5818 5818 5819 5819 5819 5819 5818 5817 5816 5814 5813 5813 5811 5810 5809 5807 5805 5803 5802 5801 5799 5797 5795 5793 5791 5789 5787 5786 5784 5783 5782 5781 5780 5779 5778 5778
5802 5805 5807 5809 5810 5812 5813 5814 5815 5815 5815 5814 5815 5815 5814 5813 5811 5810 5808 5808 5806 5805 5803 5801 5799 5797 5796 5794 5792 5790 5788 5786 5784 5782 5780 5779 5777 5776 5775 5774 5773 5772 5771 5771
5800 5803 5805 5806 5807 5809 5811 5812 5812 5812 5812 5812 5811 5813 5810 5809 5807 5805 5804 5802 5801 5799 5797 5795 5794 5792 5790 5788 5786 5783 5781 5779 5777 5775 5773 5772 5770 5769 5767 5766 5766 5765 5764 5763
5797 5800 5801 5803 5805 5806 5808 5808 5809 5810 5809 5808 5807 5810 5806 5804 5802 5800 5799 5797 5795 5794 5792 5790 5788 5786 5784 5782 5779 5777 5775 5773 5770 5768 5766 5765 5763 5762 5760 5759 5758 5757 5757 5756
5795 5797 5799 5801 5804 5804 5804 5805 5806 5806 5806 5805 5805 5806 5802 5800 5798 5796 5795 5793 5791 5789 5787 5784 5782 5780 5778 5776 5773 5771 5768 5766 5764 5762 5760 5758 5756 5755 5754 5752 5751 5750 5749 5749
5793 5795 5797 5799 5799 5800 5801 5801 5802 5802 5802 5802 5801 5800 5799 5796 5794 5792 5790 5788 5786 5784 5782 5779 5777 5774 5772 5769 5767 5764 5762 5760 5757 5755 5753 5751 5750 5748 5747 5745 5744 5743 5742 5742
5791 5793 5794 5796 5796 5797 5798 5798 5799 5799 5798 5798 5797 5795 5794 5792 5791 5788 5786 5784 5781 5779 5776 5774 5771 5768 5766 5763 5761 5758 5756 5753 5751 5749 5747 5745 5743 5742 5740 5739 5738 5737 5736 5736
5788 5790 5792 5793 5794 5794 5795 5796 5796 5795 5795 5795 5793 5792 5790 5789 5786 5784 5781 5779 5776 5773 5771 5768 5765 5763 5760 5758 5755 5752 5750 5747 5745 5743 5741 5739 5738 5736 5735 5734 5733 5732 5731 5731
5786 5788 5790 5791 5792 5792 5793 5793 5793 5792 5792 5791 5790 5789 5786 5784 5782 5779 5776 5774 5771 5768 5765 5762 5759 5757 5754 5751 5749 5747 5744 5742 5740 5738 5736 5734 5733 5732 5731 5730 5729 5728 5727 5727
5785 5787 5788 5789 5790 5790 5792 5790 5790 5790 5788 5788 5786 5784 5782 5780 5777 5774 5772 5769 5766 5763 5760 5757 5754 5751 5748 5746 5744 5742 5740 5738 5736 5734 5733 5731 5730 5729 5728 5727 5726 5725 5724 5724
5785 5786 5787 5787 5787 5788 5789 5788 5788 5787 5785 5784 5782 5780 5778 5775 5773 5770 5767 5764 5761 5758 5755 5752 5749 5746 5744 5742 5739 5738 5736 5735 5733 5732 5730 5729 5728 5727 5726 5725 5724 5723 5722 5722
5785 5785 5786 5786 5786 5786 5787 5786 5785 5785 5783 5781 5779 5776 5774 5771 5769 5767 5763 5760 5757 5754 5750 5748 5745 5742 5740 5738 5736 5735 5733 5732 5731 5730 5728 5727 5726 5725 5724 5724 5723 5722 5721 5720
5784 5785 5785 5785 5785 5784 5785 5783 5783 5783 5781 5778 5776 5773 5771 5768 5766 5764 5760 5756 5753 5750 5747 5744 5742 5740 5738 5736 5734 5733 5732 5731 5730 5728 5728 5727 5726 5725 5724 5723 5722 5721 5720 5720
5784 5784 5784 5784 5783 5785 5782 5781 5781 5780 5777 5775 5773 5770 5768 5765 5763 5760 5756 5753 5750 5747 5744 5742 5740 5738 5736 5734 5732 5732 5731 5730 5729 5728 5727 5727 5726 5725 5724 5723 5722 5722 5721 5721
5784 5784 5783 5783 5784 5782 5780 5779 5778 5776 5774 5772 5770 5768 5765 5763 5760 5757 5754 5751 5748 5745 5743 5741 5739 5737 5735 5733 5732 5731 5731 5730 5729 5729 5728 5727 5727 5726 5725 5724 5724 5723 5723 5722
5783 5783 5782 5781 5780 5779 5778 5777 5775 5773 5772 5770 5768 5765 5763 5761 5758 5755 5752 5749 5746 5744 5742 5740 5738 5737 5735 5734 5732 5732 5731 5731 5730 5730 5729 5729 5728 5727 5727 5726 5726 5725 5725 5724
5782 5782 5781 5780 5779 5778 5777 5775 5773 5771 5769 5768 5766 5764 5761 5759 5756 5753 5751 5748 5746 5744 5742 5740 5738 5737 5736 5735 5734 5733 5732 5732 5732 5731 5731 5730 5730 5729 5729 5728 5728 5727 5727 5726
5782 5781 5780 5779 5778 5776 5775 5773 5771 5769 5768 5766 5764 5762 5760 5758 5755 5753 5750 5748 5746 5744 5742 5741 5739 5738 5737 5736 5735 5735 5734 5734 5733 5733 5733 5732 5732 5731 5731 5731 5730 5730 5729 5729